Regional Weather Roundup
Issued by NWS

Home | Current Version | Previous Version | Graphics & Text | Print | Product List | Glossary Off
Versions: 1 2 3 4 5 6 7 8 9 10 11 12 13 14 15 16 17 18 19 20 21 22 23 24 25 26 27 28 29 30 31 32 33 34 35 36 37 38 39 40 41 42 43 44 45 46 47 48 49 50

111
ASUS43 KLSX 221007
RWRMO

WEATHER SUMMARY FOR MISSOURI
NATIONAL WEATHER SERVICE SPRINGFIELD MO
500 AM CDT SAT JUL 22 2017

NOTE: "FAIR" INDICATES FEW OR NO CLOUDS BELOW 12,000 FEET WITH NO
       SIGNIFICANT WEATHER AND/OR OBSTRUCTIONS TO VISIBILITY.
       CURRENT SKY AND/OR WEATHER CONDITIONS ARE NOT AVAILABLE FOR
       CHILLICOTHE AND FARMINGTON.

MOZ001>031-035>038-043-044-053-054-221100-
...NORTHERN AND WESTERN MISSOURI...

CITY           SKY/WX    TMP DP  RH WIND       PRES   REMARKS
KANSAS CTY INT CLEAR     82  72  71 SW18G25   29.82R
KANSAS C DTWN  CLEAR     86  73  65 SW14      29.81R HX  93
LEE`S SUMMIT   CLEAR     82  73  74 SW14      29.85R
ST JOSEPH      CLEAR     82  74  76 SW10      29.78R
CHILLICOTHE      N/A     83  74  74 S10       29.80S
KIRKSVILLE     MOCLDY    82  71  69 SW14G21   29.81F

$$
MOZ066>068-077>081-088>096-101>105-221100-
...SOUTHWEST MISSOURI...

CITY           SKY/WX    TMP DP  RH WIND       PRES   REMARKS
SPRINGFIELD    CLEAR     74  71  91 S6        29.94R
JOPLIN         CLEAR     81  72  74 S9        29.91S
BRANSON          N/A     77  68  73 SW7       29.96R

$$
MOZ032>034-039>042-045>050-055>058-069>072-221100-
...CENTRAL MISSOURI...

CITY           SKY/WX    TMP DP  RH WIND       PRES   REMARKS
COLUMBIA       CLEAR     76  70  82 S5        29.88R
JEFFERSON CITY CLEAR     80  72  76 S6        29.87R
ROLLA          CLEAR     75  72  90 S9        29.91R
SEDALIA        CLEAR     82  73  74 SW13      29.88R
WHITEMAN AFB   CLEAR     81  74  79 SW14      29.85R
WARRENSBURG    CLEAR     81  70  69 S9        29.85R
OSAGE BEACH    CLEAR     80  71  74 SW8       29.91R

$$
MOZ051-052-059>065-221100-
...EAST CENTRAL MISSOURI...

CITY           SKY/WX    TMP DP  RH WIND       PRES   REMARKS
ST LOUIS INTL  PTCLDY    86  72  62 SW14      29.86F HX  92
SPIRIT OF STL  CLEAR     82  73  74 SW8       29.85F
ST CHARLES     CLEAR     80  73  79 SW5       29.84S

$$
MOZ072>076-082>087-097>100-106>115-221100-
...SOUTH CENTRAL AND SOUTHEAST MISSOURI...

CITY           SKY/WX    TMP DP  RH WIND       PRES   REMARKS
CAPE GIRARDEAU CLEAR     78  73  84 S5        29.90S
FARMINGTON     CLEAR     77  73  87 CALM      29.94R
POPLAR BLUFF   CLEAR     78  77  96 CALM      29.91R FOG
WEST PLAINS    CLEAR     76  72  87 SW6       29.96R

$$




USA.gov is the U.S. government's official web portal to all federal, state and local government web resources and services.